Location: Unspecified
(56.5167°N, 0.0000°E)
Time: 20:01:07
(UTC+02:00)

Resurs 1-4 Rocket - Visible Passes

Search period start: 24 April 2018 00:00
Search period end: 04 May 2018 00:00
Orbit: 799 x 815 km, 98.5° (Epoch: 19 April)

Date Brightness Start Highest point End Pass type
(mag) Time Alt. Az. Time Alt. Az. Time Alt. Az.
24 Apr 3.5 03:22:15 10° NNE 03:26:55 31° E 03:30:42 14° SSE visible
24 Apr 2.3 05:01:55 10° N 05:07:05 57° WNW 05:11:47 12° SW visible
25 Apr 4.0 02:58:02 10° NE 03:02:03 21° E 03:05:54 10° SE visible
25 Apr 2.1 04:37:15 10° NNE 04:42:33 82° WNW 04:46:59 15° SSW visible
26 Apr 4.4 02:34:13 10° NE 02:37:05 15° E 02:39:55 10° ESE visible
26 Apr 2.3 04:12:39 10° NNE 04:17:55 69° ESE 04:22:11 16° S visible
27 Apr 2.8 03:48:07 10° NNE 03:53:13 47° E 03:57:24 15° S visible
27 Apr 2.8 05:28:10 10° N 05:33:02 39° WNW 05:37:54 10° SW visible
28 Apr 3.4 03:23:44 10° NNE 03:28:26 32° E 03:32:36 13° SSE visible
28 Apr 2.4 05:03:26 10° N 05:08:35 56° WNW 05:13:41 10° SW visible
29 Apr 4.0 02:59:30 10° NE 03:03:34 22° E 03:07:37 10° SE visible
29 Apr 2.1 04:38:45 10° NNE 04:44:02 80° WNW 04:48:53 12° SSW visible
30 Apr 4.4 02:35:39 10° NE 02:38:36 15° E 02:41:34 10° ESE visible
30 Apr 2.3 04:14:09 10° NNE 04:19:26 71° ESE 04:24:05 13° S visible
01 May 2.8 03:49:37 10° NNE 03:54:44 48° E 03:59:17 13° S visible
02 May 3.4 03:25:12 10° NNE 03:29:57 33° E 03:34:29 11° SSE visible
02 May 2.4 05:04:56 10° N 05:10:04 54° WNW 05:15:12 10° SW visible
03 May 3.9 03:00:58 10° NE 03:05:05 23° E 03:09:12 10° SE visible
03 May 2.1 04:40:15 10° NNE 04:45:32 78° WNW 04:50:45 10° SSW visible
